[Date Prev][Date Next][Thread Prev][Thread Next] - [Date Index][Thread Index][Author Index]
2 Line ISS Keps 2-11
- Subject: [sarex] 2 Line ISS Keps 2-11
- From: "Dave Larsen Ph.D." <doc@xxxxxxxxxxx>
- Date: Tue, 11 Feb 2003 01:18:19 -0800
ISS
1 25544U 98067A 03042.15886484 .00035259 00000-0 42090-3 0 6745
2 25544 51.6354 293.1721 0005463 134.1715 24.0999 15.60676962241346
----
Via the sarex mailing list at AMSAT.ORG courtesy of AMSAT-NA.
To unsubscribe, send "unsubscribe sarex" to Majordomo@amsat.org
AMSAT Home